Weather in Kyzyl-Oktyabr

Russia / Karachay-Cherkess Republic     43°49′26″N   41°47′11″E
temp.,
°C
wind,
m/s
gust,
m/s
humid.,
%
clouds,
%
prec.,
mm/h
press.,
hPa
HPBL,
m
16 may, sun
sun1600:00+10s32846 0.0 101433
03:00+10s327475 0.0 101333
06:00+12s226533 0.0 101137
09:00+21nne11385 0.0 1009533
12:00+24n32406 0.0 10071141
15:00+24n324553 0.0 10051325
18:00+19e237910 0.5 100685
21:00+13s3375100 0.6 100746
17 may, mon
mon1700:00+14s3460100 0.0 100649
03:00+13s34595 0.0 100650
06:00+14s336099 0.0 100747
09:00+21n2144100 0.0 1006542
12:00+22n335287 0.0 1006831
15:00+17nnw3488100 2.7 1008525
18:00+14nne2395100 5.8 1009233
21:00+12ssw119887 8.8 101162
18 may, tue
tue1800:00+11sw1195100 2.9 101019
03:00+11s1194100 7.3 101057
06:00+10se0193100 1.2 101269
09:00+10ne1194100 2.0 1012215
12:00+14nnw1174100 1.0 1011786
15:00+15n228068 3.5 1011662
18:00+13nne239015 3.7 1012269
21:00+9s219574 4.1 101417
19 may, wed
wed1900:00+6s32865 0.0 101532
03:00+7sse3382100 0.0 101441
06:00+10sw127798 0.0 101439
09:00+15ese135419 0.1 1014889
12:00+18nw25466 0.1 10131499
15:00+18n44575 0.8 10141011
18:00+13n348432 0.8 1017499
21:00+9nnw009976 0.8 101927
20 may, thu
thu2000:00+9s118644 0.0 101824
03:00+6sse22787 0.0 101921
06:00+8sse22660 0.0 101745
09:00+17nne22384 0.0 1013455
12:00+22nne32390 0.0 1011841
15:00+22n32472 0.0 1011848
18:00+20n23700 0.0 1011220
21:00+14sse33731 0.0 101239